STARLINK-1795 (46696 NORAD) Tracking and Keplerian Element Data
This shows tracking and keplerian element data for the satellite.
Feedback or suggestion? Click here.
Element | Value |
Catalog | 46696 |
Name | STARLINK-1795 |
Epoch Orbit | 1486 |
Epoch Day | 18.25002315 |
Epoch Year | 2021 |
RAAN | 19.537 |
Inclination | 53.0551 |
Eccentricity | 0.0003925 |
Argument of Perigee | 3.3637 |
Mean Anonmoly | 120.3096 |
Mean Motion | 15.58153057 |
Decay Rate | -0.01098291 |
L1 | 1 46696U 20073AC 21018.25002315 -.01098291 00000-0 -15765-1 0 9990 |
L2 | 2 46696 53.0551 19.5370 0003925 3.3637 120.3096 15.58153057 14868 |
Live tracking and technical data element details for STARLINK-1795 (NORAD 46696). STARLINK-1795 can be tracked NOW for your location showing map with azimuth and elevation plus other details from your city location.
Track the satellite on the map from your city or location and see movement details for azimuth, elevation, latitude, longitude, range, height, and movement on the map or in text.
IsCatalogInMostPopularTable: catalog: 46696, numindb: 26
Update: records affected: 1
GetName: 46696 STARLINK-1795
Hit Count: updated at: Tue, 19 Jan 2021 02:01:07 GMT